1487224800.4,16860,12.13,74680.8,-4.81,-34.35,-34.53,0,*54
1487224801.66,16861,12.13,74682.0,-4.81,-34.13,-34.53,0,*51
1487224802.93,16862,12.13,74678.0,-4.81,-33.89,-34.19,0,*58
1487224804.21,16863,12.13,74682.3,-4.81,-33.89,-34.31,0,*53
1487224805.48,16864,12.13,74680.0,-4.81,-33.89,-34.31,0,*54
1487224806.73,16865,12.13,74682.8,-4.79,-34.19,-34.53,0,*58
1487224807.97,16866,12.13,74680.0,-4.79,-34.13,-34.53,0,*51
1487224809.19,16867,12.13,74682.3,-4.79,-33.95,-34.31,0,*5D
1487224810.41,16868,12.13,74676.3,-4.79,-33.77,-34.13,0,*5E
1487224811.64,16869,12.13,74680.5,-4.79,-33.95,-34.35,0,*57
1487224812.85,16870,12.13,74680.0,-4.79,-34.47,-34.71,0,*57
1487224814.08,16871,12.13,74678.5,-4.79,-34.47,-34.83,0,*5B
1487224815.31,16872,12.13,74676.5,-4.79,-34.13,-34.53,0,*54
1487224816.53,16873,12.13,74676.5,-4.73,-33.95,-34.25,0,*57
1487224817.77,16874,12.13,74680.5,-4.77,-34.13,-34.47,0,*59
1487224819.05,16875,12.13,74676.0,-4.77,-33.89,-34.01,0,*5E
1487224820.28,16876,12.13,74676.3,-4.77,-34.25,-34.41,0,*58
1487224821.57,16877,12.13,74682.0,-4.77,-34.31,-34.65,0,*5A
1487224822.82,16878,12.13,74680.0,-4.77,-34.07,-34.31,0,*51
1487224824.08,16879,12.13,74678.3,-4.77,-34.01,-34.13,0,*56
1487224825.34,16880,12.13,74680.5,-4.77,-34.25,-34.65,0,*57
1487224826.6,16881,12.13,74680.0,-4.73,-34.35,-34.71,0,*56
1487224827.85,16882,12.13,74680.5,-4.73,-34.25,-34.53,0,*54
1487224829.11,16883,12.13,74680.0,-4.73,-33.67,-34.01,0,*53
1487224830.4,16884,12.13,74678.3,-4.73,-34.19,-34.53,0,*5D
1487224831.59,16885,12.13,74678.8,-4.71,-34.25,-34.59,0,*5B
1487224832.79,16886,12.13,74678.3,-4.71,-34.41,-34.71,0,*50
1487224834.02,16887,12.13,74680.3,-4.73,-34.07,-34.41,0,*52
1487224835.27,16888,12.13,74682.3,-4.73,-33.83,-34.35,0,*55
1487224836.5,16889,12.13,74676.0,-4.73,-34.25,-34.71,0,*5F
1487224837.76,16890,12.13,74678.3,-4.73,-34.53,-34.89,0,*51
1487224839.04,16891,12.13,74682.8,-4.69,-34.19,-34.53,0,*52
1487224840.24,16892,12.13,74682.8,-4.71,-34.41,-34.71,0,*55
1487224841.46,16893,12.13,74676.3,-4.71,-34.35,-34.59,0,*5D
1487224842.69,16894,12.13,74680.3,-4.71,-34.19,-34.59,0,*54
1487224843.91,16895,12.13,74682.8,-4.71,-34.31,-34.59,0,*5F
1487224845.2,16896,12.13,74678.8,-4.69,-34.19,-34.65,0,*50
1487224846.39,16897,12.13,74680.0,-4.71,-34.07,-34.41,0,*51
1487224847.61,16898,12.13,74682.5,-4.71,-34.01,-34.25,0,*5A
1487224848.81,16899,12.13,74680.8,-4.71,-33.83,-34.25,0,*56
1487224850.09,16900,12.13,74682.5,-4.69,-34.31,-34.53,0,*51
1487224851.33,16901,12.13,74682.5,-4.69,-33.95,-34.35,0,*59
1487224852.6,16902,12.13,74676.3,-4.69,-33.77,-34.19,0,*58
1487224853.85,16903,12.13,74676.3,-4.69,-33.61,-34.13,0,*54
1487224855.1,16904,12.13,74682.0,-4.69,-33.73,-34.13,0,*50
1487224856.38,16905,12.13,74678.3,-4.69,-33.61,-34.01,0,*51
1487224857.67,16906,12.13,74680.8,-4.67,-34.35,-34.65,0,*58
1487224858.87,16907,12.13,74678.0,-4.65,-34.13,-34.59,0,*50
1487224860.1,16908,12.06,74672.3,-4.65,-33.73,-34.25,0,*55
1487224861.35,16909,12.13,74676.8,-4.67,-33.95,-34.19,0,*51
1487224862.58,16910,12.13,74680.0,-4.65,-33.73,-34.07,0,*5C
1487224863.81,16911,12.13,74682.3,-4.65,-33.55,-33.89,0,*58
1487224865.07,16912,12.13,74680.5,-4.65,-33.49,-33.73,0,*53
1487224866.29,16913,12.13,74678.3,-4.63,-33.83,-34.25,0,*56
1487224867.49,16914,12.13,74674.8,-4.61,-34.07,-34.41,0,*5A
1487224868.72,16915,12.13,74676.8,-4.63,-34.25,-34.47,0,*5F
1487224869.95,16916,12.13,74676.3,-4.63,-34.07,-34.47,0,*5C
1487224871.17,16917,12.13,74676.3,-4.61,-34.19,-34.41,0,*56
1487224872.4,16918,12.13,74682.8,-4.63,-34.13,-34.47,0,*57
1487224873.62,16919,12.13,74680.3,-4.61,-33.89,-34.25,0,*54
1487224874.85,16920,12.13,74676.5,-4.61,-34.07,-34.35,0,*5E
1487224876.07,16921,12.13,74678.0,-4.63,-34.25,-34.59,0,*57
1487224877.31,16922,12.13,74680.3,-4.63,-33.89,-34.25,0,*5E
1487224878.55,16923,12.13,74678.0,-4.61,-33.67,-34.01,0,*5B
1487224879.8,16924,12.13,74676.0,-4.59,-33.67,-34.01,0,*57
1487224881.02,16925,12.13,74676.0,-4.59,-33.83,-34.25,0,*5A
1487224882.29,16926,12.13,74676.5,-4.59,-33.89,-34.35,0,*52
1487224883.51,16927,12.13,74680.3,-4.59,-34.07,-34.41,0,*51
1487224884.76,16928,12.13,74676.8,-4.59,-34.25,-34.53,0,*5D
1487224886.0,16929,12.13,74676.5,-4.59,-34.19,-34.41,0,*50
1487224887.22,16930,12.13,74676.8,-4.59,-33.83,-34.25,0,*5E
1487224888.5,16931,12.13,74680.0,-4.59,-34.19,-34.53,0,*5A
1487224889.72,16932,12.13,74680.3,-4.57,-33.95,-34.31,0,*50
1487224890.94,16933,12.13,74678.3,-4.57,-33.95,-34.31,0,*51
1487224892.17,16934,12.13,74680.8,-4.57,-34.13,-34.65,0,*5E
1487224893.4,16935,12.13,74676.5,-4.57,-34.13,-34.31,0,*5E
1487224894.61,16936,12.13,74676.3,-4.57,-33.95,-34.35,0,*50
1487224895.87,16937,12.13,74680.0,-4.57,-33.61,-34.01,0,*5D
1487224897.11,16938,12.13,74678.3,-4.55,-33.61,-34.13,0,*53
1487224898.34,16939,12.13,74678.8,-4.55,-34.13,-34.47,0,*51
1487224899.57,16940,12.13,74678.5,-4.55,-34.13,-34.47,0,*5F
1487224900.8,16941,12.13,74678.5,-4.55,-34.13,-34.47,0,*5E
1487224902.03,16942,12.13,74678.3,-4.51,-33.67,-33.95,0,*55
1487224903.28,16943,12.13,74680.0,-4.51,-33.73,-33.95,0,*51
1487224904.5,16944,12.13,74682.0,-4.51,-33.95,-34.41,0,*50
1487224905.73,16945,12.13,74680.5,-4.49,-34.07,-34.31,0,*53
1487224906.95,16946,12.13,74682.3,-4.51,-33.95,-34.41,0,*52
1487224908.2,16947,12.13,74678.8,-4.51,-33.77,-34.13,0,*58
1487224909.42,16948,12.13,74678.8,-4.51,-33.67,-34.07,0,*53
1487224910.65,16949,12.13,74678.5,-4.49,-33.89,-34.13,0,*5E
1487224911.85,16950,12.13,74680.5,-4.49,-34.07,-34.41,0,*50
1487224913.09,16951,12.13,74678.8,-4.47,-34.01,-34.25,0,*5B
1487224914.33,16952,12.13,74676.8,-4.47,-33.61,-34.07,0,*59
1487224915.58,16953,12.13,74680.5,-4.47,-34.01,-34.41,0,*5B
1487224916.81,16954,12.13,74676.3,-4.49,-34.31,-34.59,0,*58
1487224918.09,16955,12.13,74682.3,-4.47,-34.19,-34.53,0,*57
1487224919.31,16956,12.13,74678.0,-4.47,-34.07,-34.41,0,*58
1487224920.55,16957,12.13,74678.5,-4.47,-33.89,-34.25,0,*5A
1487224921.79,16958,12.13,74680.3,-4.47,-33.89,-34.25,0,*55
1487224923.01,16959,12.13,74680.3,-4.45,-34.01,-34.25,0,*51
1487224924.27,16960,12.13,74678.0,-4.43,-33.83,-34.01,0,*56
1487224925.55,16961,12.13,74682.0,-4.43,-34.19,-34.53,0,*54
1487224926.78,16962,12.13,74680.0,-4.45,-33.73,-34.07,0,*5B
1487224928.04,16963,12.13,74680.0,-4.43,-34.01,-34.47,0,*5A
1487224929.32,16964,12.13,74680.0,-4.43,-34.19,-34.65,0,*54
1487224930.55,16965,12.13,74678.8,-4.45,-34.31,-34.71,0,*5C
1487224931.78,16966,12.13,74680.5,-4.43,-33.67,-33.95,0,*50
1487224933.01,16967,12.13,74680.3,-4.45,-33.31,-33.83,0,*53
1487224934.25,16968,12.13,74684.0,-4.43,-33.61,-34.13,0,*51
1487224935.5,16969,12.13,74682.0,-4.39,-34.07,-34.31,0,*5A
1487224936.71,16970,12.13,74680.8,-4.41,-34.13,-34.59,0,*56
1487224937.93,16971,12.13,74678.8,-4.41,-33.95,-34.31,0,*50
1487224939.18,16972,12.13,74680.3,-4.39,-33.73,-34.13,0,*54
1487224940.44,16973,12.13,74676.8,-4.39,-33.73,-34.07,0,*50
1487224941.66,16974,12.13,74678.8,-4.37,-33.49,-33.83,0,*5B
1487224942.91,16975,12.13,74682.3,-4.39,-33.55,-33.77,0,*52
1487224944.18,16976,12.13,74680.3,-4.35,-33.67,-34.01,0,*5A
1487224945.38,16977,12.13,74680.3,-4.37,-33.67,-34.07,0,*5F
1487224946.58,16978,12.13,74680.0,-4.37,-34.07,-34.41,0,*53
1487224947.84,16979,12.06,74678.3,-4.35,-33.73,-34.07,0,*56
1487224949.1,16980,12.13,74678.5,-4.35,-33.83,-34.19,0,*50
1487224950.32,16981,12.13,74678.8,-4.37,-34.01,-34.41,0,*53
1487224951.56,16982,12.13,74676.3,-4.35,-33.67,-34.07,0,*57
1487224952.84,16983,12.13,74680.0,-4.35,-33.73,-34.19,0,*5C
1487224954.08,16984,12.13,74680.3,-4.35,-34.07,-34.41,0,*52
1487224955.36,16985,12.13,74676.8,-4.35,-33.89,-34.35,0,*51
1487224956.62,16986,12.13,74676.0,-4.33,-33.49,-33.77,0,*59
1487224957.84,16987,12.13,74676.5,-4.33,-34.13,-34.47,0,*54
1487224959.11,16988,12.13,74680.0,-4.29,-34.19,-34.53,0,*5F
1487224960.37,16989,12.13,74678.3,-4.33,-34.01,-34.35,0,*5C
1487224961.63,16990,12.13,74682.5,-4.33,-33.77,-34.19,0,*5C
1487224962.9,16991,12.13,74676.3,-4.29,-33.77,-34.01,0,*5F
1487224964.16,16992,12.13,74678.8,-4.29,-33.77,-34.19,0,*55
1487224965.43,16993,12.13,74680.5,-4.29,-33.77,-34.01,0,*5D
1487224966.67,16994,12.13,74678.0,-4.29,-33.95,-34.31,0,*55
1487224967.9,16995,12.13,74676.8,-4.27,-33.95,-34.41,0,*5D
1487224969.17,16996,12.13,74676.3,-4.27,-34.13,-34.65,0,*51
1487224970.41,16997,12.13,74678.0,-4.27,-34.13,-34.47,0,*50
1487224971.68,16998,12.13,74680.3,-4.27,-34.25,-34.65,0,*5A
1487224972.92,16999,12.13,74680.8,-4.27,-34.07,-34.41,0,*5D
1487224974.15,17000,12.13,74676.3,-4.25,-33.61,-34.13,0,*57
1487224975.4,17001,12.13,74678.8,-4.27,-34.13,-34.47,0,*57
1487224976.64,17002,12.13,74676.3,-4.25,-34.25,-34.65,0,*53
1487224977.87,17003,12.13,74678.8,-4.27,-33.95,-34.25,0,*58
1487224979.1,17004,12.13,74682.5,-4.25,-33.77,-34.25,0,*51
1487224980.33,17005,12.13,74680.8,-4.25,-33.89,-34.13,0,*54
1487224981.59,17006,12.13,74678.8,-4.25,-33.89,-34.31,0,*57
1487224982.81,17007,12.13,74680.3,-4.25,-33.89,-34.25,0,*53
1487224984.07,17008,12.13,74676.8,-4.23,-33.55,-33.89,0,*5A
1487224985.33,17009,12.13,74680.0,-4.23,-34.01,-34.41,0,*5E
1487224986.58,17010,12.13,74680.3,-4.23,-34.07,-34.47,0,*56
1487224987.81,17011,12.13,74678.8,-4.21,-34.01,-34.41,0,*55
1487224989.06,17012,12.13,74678.8,-4.21,-34.19,-34.59,0,*56
1487224990.29,17013,12.13,74678.3,-4.21,-34.19,-34.41,0,*5E
1487224991.56,17014,12.13,74676.8,-4.21,-34.01,-34.35,0,*53
1487224992.83,17015,12.13,74676.3,-4.21,-33.73,-34.01,0,*57
1487224994.05,17016,12.13,74678.5,-4.21,-34.07,-34.59,0,*5D
1487224995.3,17017,12.13,74678.0,-4.21,-34.25,-34.65,0,*53
1487224996.53,17018,12.13,74680.0,-4.21,-33.89,-34.25,0,*59
1487224997.77,17019,12.13,74682.8,-4.21,-34.25,-34.65,0,*5D
1487224999.04,17020,12.13,74678.3,-4.19,-34.13,-34.53,0,*5C
1487225000.3,17021,12.13,74682.3,-4.19,-34.01,-34.41,0,*5D
1487225001.58,17022,12.13,74678.5,-4.19,-33.77,-34.19,0,*55
1487225002.82,17023,12.13,74680.5,-4.19,-34.13,-34.41,0,*5C
1487225004.06,17024,12.13,74680.5,-4.17,-33.73,-33.95,0,*5A
1487225005.35,17025,12.13,74682.0,-4.19,-33.61,-34.01,0,*5C
1487225006.61,17026,12.13,74678.3,-4.17,-33.77,-34.31,0,*55
1487225007.85,17027,12.13,74680.0,-4.17,-33.77,-34.13,0,*54
1487225009.06,17028,12.13,74678.0,-4.17,-33.55,-33.95,0,*52
1487225010.3,17029,12.13,74676.8,-4.17,-33.61,-34.07,0,*58
1487225011.55,17030,12.13,74678.8,-4.15,-33.89,-34.25,0,*54
1487225012.8,17031,12.13,74682.0,-4.13,-33.73,-34.07,0,*56
1487225014.06,17032,12.13,74682.3,-4.15,-33.77,-34.13,0,*52
1487225015.3,17033,12.06,74678.0,-4.13,-33.73,-34.25,0,*54
1487225016.53,17034,12.13,74680.0,-4.13,-34.07,-34.47,0,*53
1487225017.76,17035,12.13,74684.5,-4.13,-33.83,-34.19,0,*52
1487225019.01,17036,12.13,74680.3,-4.13,-33.67,-34.01,0,*52
1487225020.25,17037,12.13,74682.8,-4.13,-33.55,-33.89,0,*55
1487225021.45,17038,12.13,74678.3,-4.09,-33.83,-34.25,0,*5B
1487225022.68,17039,12.06,74676.0,-4.09,-33.89,-34.25,0,*50
1487225023.93,17040,12.13,74682.0,-4.11,-33.83,-34.19,0,*52
1487225025.16,17041,12.13,74680.5,-4.09,-33.89,-34.25,0,*5F
1487225026.37,17042,12.13,74678.5,-4.09,-33.67,-34.07,0,*5C
1487225027.61,17043,12.06,74678.3,-4.09,-33.73,-34.07,0,*58
1487225028.84,17044,12.06,74674.3,-4.09,-33.83,-34.19,0,*5F
1487225030.07,17045,12.13,74676.8,-4.05,-33.83,-34.19,0,*52
1487225031.31,17046,12.13,74680.3,-4.05,-33.83,-34.35,0,*5F
1487225032.52,17047,12.13,74680.8,-4.05,-33.83,-34.25,0,*5F
1487225033.76,17048,12.13,74682.0,-4.05,-33.61,-34.13,0,*59
1487225035.0,17049,12.13,74682.0,-4.03,-33.73,-34.13,0,*5D
1487225036.23,17050,12.13,74680.3,-4.03,-33.77,-34.13,0,*51
1487225037.46,17051,12.13,74680.0,-4.03,-33.95,-34.35,0,*58
1487225038.71,17052,12.13,74678.8,-4.03,-33.89,-34.31,0,*52
1487225039.95,17053,12.13,74676.5,-4.03,-34.13,-34.35,0,*53
1487225041.24,17054,12.13,74682.3,-4.01,-34.19,-34.65,0,*59
1487225042.49,17055,12.06,74676.0,-4.03,-33.89,-34.31,0,*55
1487225043.72,17056,12.13,74676.5,-4.03,-33.95,-34.35,0,*5F
1487225044.96,17057,12.13,74676.5,-3.99,-34.01,-34.25,0,*51
1487225046.21,17058,12.13,74682.0,-4.01,-33.95,-34.31,0,*57
1487225047.48,17059,12.13,74678.5,-4.01,-33.77,-34.13,0,*5A
1487225048.72,17060,12.13,74676.8,-3.99,-33.73,-34.07,0,*57
1487225049.96,17061,12.13,74678.0,-3.99,-33.55,-33.89,0,*53
1487225051.2,17062,12.13,74680.5,-3.99,-33.55,-34.01,0,*57
1487225052.44,17063,12.13,74680.8,-3.99,-34.01,-34.47,0,*52
1487225053.66,17064,12.06,74676.3,-3.99,-34.13,-34.59,0,*59
1487225054.91,17065,12.13,74680.5,-3.97,-33.89,-34.25,0,*59
1487225056.2,17066,12.13,74682.0,-3.97,-33.89,-34.19,0,*55
1487225057.45,17067,12.13,74680.5,-3.95,-33.77,-34.19,0,*57
1487225058.69,17068,12.13,74682.5,-3.97,-33.83,-34.25,0,*5E
1487225059.92,17069,12.13,74678.5,-3.95,-33.83,-34.19,0,*52
1487225061.19,17070,12.13,74678.3,-3.97,-33.73,-34.07,0,*58
1487225062.42,17071,12.13,74680.0,-3.95,-34.01,-34.41,0,*5B
1487225063.67,17072,12.13,74680.0,-3.95,-33.77,-34.19,0,*53
1487225064.9,17073,12.13,74680.3,-3.93,-33.83,-34.25,0,*50
1487225066.11,17074,12.06,74678.8,-3.95,-33.83,-34.25,0,*51
1487225067.33,17075,12.13,74680.5,-3.95,-33.77,-34.25,0,*5B
1487225068.61,17076,12.13,74680.3,-3.93,-33.77,-34.19,0,*51
1487225069.86,17077,12.13,74678.0,-3.91,-33.77,-34.19,0,*52
1487225071.09,17078,12.13,74682.3,-3.91,-33.95,-34.31,0,*5B
1487225072.32,17079,12.13,74678.5,-3.93,-34.07,-34.41,0,*53
1487225073.56,17080,12.13,74682.8,-3.91,-34.13,-34.65,0,*54
1487225074.82,17081,12.13,74680.5,-3.91,-33.73,-34.19,0,*5F
1487225076.03,17082,12.13,74678.8,-3.91,-33.95,-34.47,0,*5F
1487225077.29,17083,12.06,74676.3,-3.91,-34.19,-34.53,0,*58
1487225078.54,17084,12.13,74680.5,-3.91,-33.89,-34.31,0,*55
1487225079.78,17085,12.13,74682.5,-3.91,-34.01,-34.47,0,*52
1487225081.02,17086,12.13,74680.8,-3.91,-34.01,-34.47,0,*51
1487225082.28,17087,12.13,74680.5,-3.89,-33.95,-34.35,0,*56
1487225083.52,17088,12.13,74680.8,-3.89,-33.95,-34.47,0,*5C
1487225084.8,17089,12.06,74678.3,-3.89,-33.89,-34.31,0,*51
1487225086.0,17090,12.13,74678.8,-3.87,-33.95,-34.47,0,*5B
1487225087.29,17091,12.13,74682.3,-3.89,-34.01,-34.31,0,*5F
1487225088.54,17092,12.13,74682.8,-3.87,-33.89,-34.31,0,*55
1487225089.74,17093,12.13,74678.5,-3.87,-33.83,-34.25,0,*5B
1487225090.94,17094,12.13,74682.3,-3.87,-33.95,-34.41,0,*59
1487225092.19,17095,12.13,74676.8,-3.87,-33.89,-34.31,0,*52
1487225093.43,17096,12.13,74682.3,-3.87,-33.73,-34.13,0,*54
1487225094.65,17097,12.13,74678.5,-3.83,-33.61,-34.07,0,*57
1487225095.91,17098,12.06,74676.3,-3.83,-33.61,-34.01,0,*5E
1487225097.13,17099,12.13,74680.5,-3.83,-33.89,-34.41,0,*5D
1487225098.4,17100,12.13,74680.5,-3.83,-34.01,-34.53,0,*58
1487225099.67,17101,12.06,74674.5,-3.81,-33.89,-34.35,0,*5C
1487225100.93,17102,12.13,74676.8,-3.83,-34.19,-34.53,0,*53
1487225102.19,17103,12.13,74680.0,-3.81,-34.19,-34.59,0,*5A
1487225103.42,17104,12.13,74680.5,-3.83,-34.19,-34.41,0,*56
1487225104.67,17105,12.13,74682.0,-3.81,-33.89,-34.25,0,*59
1487225105.92,17106,12.06,74678.5,-3.81,-33.83,-34.19,0,*5F
1487225107.18,17107,12.06,74678.8,-3.81,-33.77,-34.25,0,*5A
1487225108.41,17108,12.06,74676.3,-3.81,-33.83,-34.41,0,*5C
1487225109.64,17109,12.13,74680.3,-3.81,-34.07,-34.59,0,*5F
1487225110.9,17110,12.06,74676.0,-3.81,-34.01,-34.25,0,*5A
1487225112.16,17111,12.13,74676.5,-3.77,-33.73,-34.13,0,*55
1487225113.41,17112,12.06,74676.8,-3.77,-33.83,-34.19,0,*53
1487225114.65,17113,12.13,74680.3,-3.79,-34.13,-34.65,0,*59
1487225115.91,17114,12.06,74678.5,-3.79,-34.01,-34.35,0,*58
1487225117.14,17115,12.13,74680.3,-3.77,-33.95,-34.13,0,*59
1487225118.37,17116,12.13,74680.0,-3.79,-33.55,-34.01,0,*5B
1487225119.62,17117,12.13,74678.3,-3.79,-33.77,-34.31,0,*59
1487225120.9,17118,12.13,74678.5,-3.77,-34.19,-34.53,0,*53
1487225122.18,17119,12.13,74682.8,-3.77,-34.01,-34.35,0,*5B
1487225123.44,17120,12.13,74682.0,-3.73,-33.77,-34.25,0,*52
1487225124.69,17121,12.13,74680.8,-3.75,-33.89,-34.31,0,*51
1487225125.89,17122,12.13,74680.5,-3.75,-34.07,-34.41,0,*54
1487225127.12,17123,12.06,74678.5,-3.73,-33.55,-34.07,0,*51
1487225128.36,17124,12.13,74680.3,-3.75,-33.49,-33.95,0,*51
1487225129.56,17125,12.06,74678.0,-3.75,-33.67,-33.95,0,*5C
1487225130.84,17126,12.13,74680.0,-3.73,-33.89,-34.31,0,*50
1487225132.1,17127,12.13,74678.3,-3.71,-33.73,-34.07,0,*53
1487225133.38,17128,12.06,74676.8,-3.71,-33.73,-34.19,0,*53
1487225134.67,17129,12.13,74680.8,-3.71,-33.73,-34.01,0,*5B
1487225135.93,17130,12.06,74678.3,-3.69,-33.61,-34.01,0,*59
1487225137.21,17131,12.13,74678.8,-3.71,-33.61,-34.01,0,*51
1487225138.47,17132,12.06,74676.8,-3.69,-33.61,-34.01,0,*5B
1487225139.7,17133,12.13,74678.8,-3.69,-33.61,-34.07,0,*5C
1487225140.97,17134,12.13,74682.3,-3.69,-33.73,-34.01,0,*5E
1487225142.23,17135,12.06,74676.3,-3.67,-33.77,-33.95,0,*5F
1487225143.49,17136,12.06,74676.0,-3.67,-33.77,-34.13,0,*55
1487225144.73,17137,12.06,74676.0,-3.65,-33.61,-34.13,0,*51
1487225145.99,17138,12.06,74678.3,-3.67,-34.01,-34.47,0,*5C
1487225147.23,17139,12.06,74676.0,-3.67,-33.67,-34.13,0,*5B
1487225148.45,17140,12.13,74682.0,-3.65,-33.67,-34.13,0,*57
1487225149.71,17141,12.06,74676.0,-3.65,-33.61,-34.01,0,*53
1487225150.95,17142,12.13,74680.5,-3.65,-33.67,-34.01,0,*56
1487225152.15,17143,12.13,74676.8,-3.61,-33.55,-33.95,0,*58
1487225153.37,17144,12.06,74676.8,-3.61,-34.07,-34.47,0,*57
1487225154.58,17145,12.13,74676.8,-3.61,-33.95,-34.47,0,*5A
1487225155.82,17146,12.13,74676.5,-3.61,-33.73,-34.13,0,*50
1487225157.06,17147,12.13,74678.8,-3.61,-33.73,-34.13,0,*51
1487225158.29,17148,12.13,74678.8,-3.59,-33.83,-34.25,0,*5F
1487225159.58,17149,12.13,74680.5,-3.59,-33.73,-34.19,0,*5E
1487225160.84,17150,12.06,74676.8,-3.59,-33.55,-34.01,0,*5B
1487225162.1,17151,12.06,74676.8,-3.59,-33.67,-34.01,0,*5B
1487225163.38,17152,12.06,74676.8,-3.59,-33.73,-34.19,0,*54
1487225164.62,17153,12.13,74676.8,-3.57,-33.55,-33.89,0,*51
1487225165.88,17154,12.13,74680.3,-3.57,-33.49,-33.89,0,*5B
1487225167.13,17155,12.13,74676.8,-3.55,-33.83,-34.35,0,*5E
1487225168.39,17156,12.13,74676.8,-3.55,-34.13,-34.65,0,*56
1487225169.63,17157,12.13,74680.0,-3.57,-33.55,-34.01,0,*52
1487225170.85,17158,12.06,74676.5,-3.55,-33.95,-34.41,0,*57
1487225172.11,17159,12.06,74674.8,-3.55,-34.13,-34.53,0,*5C
1487225173.37,17160,12.06,74678.0,-3.55,-33.77,-34.13,0,*57
1487225174.63,17161,12.06,74678.8,-3.53,-33.61,-34.01,0,*54
1487225175.89,17162,12.06,74678.3,-3.53,-33.61,-34.01,0,*57
1487225177.14,17163,12.06,74676.8,-3.51,-33.61,-33.95,0,*5E
1487225178.37,17164,12.13,74682.8,-3.53,-33.61,-33.95,0,*5B
1487225179.61,17165,12.06,74676.8,-3.53,-34.01,-34.47,0,*53
1487225180.86,17166,12.13,74678.5,-3.51,-33.77,-34.25,0,*50
1487225182.11,17167,12.06,74674.8,-3.51,-33.61,-34.07,0,*56
1487225183.38,17168,12.06,74676.5,-3.51,-33.73,-34.07,0,*5A
1487225184.61,17169,12.13,74678.3,-3.51,-33.55,-34.13,0,*5A
1487225185.84,17170,12.13,74678.5,-3.51,-33.55,-33.95,0,*5B
1487225187.1,17171,12.13,74678.8,-3.51,-33.73,-34.07,0,*52
1487225188.32,17172,12.06,74676.8,-3.47,-33.55,-34.07,0,*52
1487225189.56,17173,12.13,74680.3,-3.49,-33.73,-34.13,0,*5C
1487225190.81,17174,12.06,74678.3,-3.47,-34.01,-34.41,0,*50
1487225192.09,17175,12.13,74682.0,-3.47,-34.01,-34.53,0,*52
1487225193.36,17176,12.06,74676.3,-3.47,-33.89,-34.35,0,*56
1487225194.64,17177,12.13,74680.3,-3.47,-34.01,-34.53,0,*50
1487225195.9,17178,12.13,74678.3,-3.47,-34.07,-34.53,0,*59
1487225197.15,17179,12.13,74678.3,-3.47,-33.67,-34.19,0,*57
1487225198.38,17180,12.13,74678.3,-3.47,-33.67,-34.07,0,*5E
1487225199.63,17181,12.06,74676.3,-3.47,-33.73,-34.07,0,*5A
1487225200.88,17182,12.13,74678.5,-3.43,-33.67,-34.19,0,*57
1487225202.14,17183,12.13,74678.0,-3.45,-33.73,-34.19,0,*55
1487225203.37,17184,12.13,74678.0,-3.43,-33.67,-34.13,0,*5B
1487225204.64,17185,12.06,74674.5,-3.43,-33.77,-34.19,0,*51
1487225205.87,17186,12.06,74676.0,-3.45,-34.01,-34.41,0,*5F
1487225207.1,17187,12.13,74680.5,-3.43,-34.13,-34.59,0,*52
1487225208.36,17188,12.13,74678.8,-3.45,-34.19,-34.65,0,*5E
1487225209.59,17189,12.06,74676.8,-3.43,-34.13,-34.59,0,*5C
1487225210.82,17190,12.06,74676.8,-3.43,-34.13,-34.59,0,*54
1487225212.06,17191,12.06,74676.3,-3.43,-33.83,-34.47,0,*54
1487225213.31,17192,12.06,74678.8,-3.43,-33.83,-34.19,0,*5C
1487225214.54,17193,12.06,74676.5,-3.43,-33.95,-34.47,0,*51
1487225215.77,17194,12.06,74676.0,-3.39,-33.95,-34.53,0,*5E
1487225217.02,17195,12.06,74676.3,-3.39,-33.89,-34.31,0,*56
1487225218.22,17196,12.13,74682.3,-3.39,-33.55,-34.07,0,*51
1487225219.45,17197,12.06,74678.0,-3.39,-33.55,-33.89,0,*51
1487225220.73,17198,12.13,74676.8,-3.37,-33.43,-33.89,0,*57
1487225221.99,17199,12.13,74680.3,-3.37,-33.61,-33.95,0,*5B
1487225223.27,17200,12.06,74676.8,-3.37,-33.89,-34.31,0,*57
1487225224.53,17201,12.06,74678.8,-3.37,-33.95,-34.53,0,*5F
1487225225.78,17202,12.06,74676.0,-3.35,-33.89,-34.35,0,*53
1487225227.03,17203,12.13,74680.8,-3.35,-33.89,-34.19,0,*5C
1487225228.28,17204,12.06,74678.0,-3.35,-33.89,-34.35,0,*55
1487225229.56,17205,12.13,74678.5,-3.33,-33.89,-34.19,0,*5C
1487225230.82,17206,12.13,74680.5,-3.33,-33.55,-34.01,0,*57
1487225232.11,17207,12.13,74680.0,-3.33,-33.49,-34.01,0,*5B
1487225233.35,17208,12.13,74680.0,-3.33,-33.83,-34.07,0,*54
1487225234.58,17209,12.06,74678.5,-3.33,-33.83,-34.25,0,*55
1487225235.82,17210,12.06,74676.0,-3.33,-33.83,-34.47,0,*59
1487225237.1,17211,12.13,74680.3,-3.29,-33.77,-34.19,0,*53
1487225238.37,17212,12.13,74680.8,-3.29,-33.77,-34.31,0,*5A
1487225239.65,17213,12.13,74678.0,-3.29,-33.77,-34.19,0,*51
1487225240.87,17214,12.06,74676.5,-3.29,-33.95,-34.41,0,*57
1487225242.11,17215,12.13,74678.3,-3.27,-34.01,-34.59,0,*5B
1487225243.34,17216,12.06,74678.0,-3.27,-33.83,-34.53,0,*5F
1487225244.56,17217,12.13,74680.5,-3.29,-33.95,-34.41,0,*54
1487225245.8,17218,12.13,74680.3,-3.27,-34.13,-34.53,0,*5F
1487225247.03,17219,12.06,74676.8,-3.27,-34.19,-34.77,0,*52
1487225248.26,17220,12.13,74680.5,-3.27,-34.19,-34.71,0,*5E
1487225249.53,17221,12.13,74678.8,-3.27,-34.01,-34.53,0,*56
1487225250.75,17222,12.06,74678.8,-3.27,-33.83,-34.31,0,*5C
1487225251.95,17223,12.06,74676.8,-3.27,-33.95,-34.41,0,*5D
1487225253.18,17224,12.06,74678.3,-3.27,-34.19,-34.59,0,*50
1487225254.46,17225,12.13,74676.5,-3.25,-33.77,-34.35,0,*56
1487225255.73,17226,12.06,74678.3,-3.25,-33.89,-34.35,0,*54
1487225257.0,17227,12.13,74682.3,-3.25,-34.13,-34.65,0,*54
1487225258.27,17228,12.06,74674.3,-3.25,-33.77,-34.35,0,*5B
1487225259.53,17229,12.06,74676.0,-3.25,-33.73,-34.25,0,*5F
1487225260.75,17230,12.06,74678.0,-3.23,-34.19,-34.41,0,*58
1487225261.98,17231,12.06,74672.3,-3.23,-34.01,-34.41,0,*50
1487225263.2,17232,12.06,74676.8,-3.23,-33.89,-34.41,0,*54
1487225264.46,17233,12.06,74678.5,-3.25,-34.13,-34.53,0,*54
1487225265.74,17234,12.06,74676.8,-3.25,-33.89,-34.35,0,*57
1487225266.99,17235,12.13,74680.8,-3.25,-33.95,-34.35,0,*5B
1487225268.21,17236,12.06,74676.0,-3.23,-33.83,-34.19,0,*57
1487225269.47,17237,12.06,74678.8,-3.23,-33.73,-34.31,0,*53
1487225270.72,17238,12.06,74676.3,-3.23,-33.73,-34.31,0,*5C
1487225271.99,17239,12.06,74676.5,-3.21,-33.67,-34.01,0,*59
1487225273.25,17240,12.06,74678.5,-3.21,-34.01,-34.41,0,*54
1487225274.51,17241,12.13,74678.5,-3.21,-34.19,-34.47,0,*5A
1487225275.77,17242,12.06,74678.3,-3.19,-34.01,-34.35,0,*5E
1487225277.02,17243,12.06,74678.0,-3.21,-33.89,-34.41,0,*50
1487225278.3,17244,12.06,74674.5,-3.21,-33.73,-34.19,0,*5F
1487225279.56,17245,12.06,74678.8,-3.21,-33.83,-34.31,0,*5B
1487225280.79,17246,12.06,74676.0,-3.19,-34.01,-34.41,0,*59
1487225282.03,17247,12.06,74676.0,-3.21,-34.07,-34.59,0,*5C
1487225283.25,17248,12.13,74678.3,-3.19,-33.83,-34.35,0,*59
1487225284.49,17249,12.13,74680.8,-3.19,-34.19,-34.59,0,*56
1487225285.75,17250,12.13,74682.3,-3.19,-34.19,-34.53,0,*54
1487225287.0,17251,12.06,74676.5,-3.19,-33.77,-34.35,0,*5A
1487225288.29,17252,12.06,74678.8,-3.17,-34.01,-34.53,0,*51
1487225289.55,17253,12.06,74676.0,-3.17,-34.19,-34.59,0,*53
1487225290.78,17254,12.06,74680.3,-3.17,-34.13,-34.41,0,*57
1487225292.04,17255,12.06,74678.5,-3.17,-34.13,-34.53,0,*55
1487225293.33,17256,12.06,74678.3,-3.17,-34.01,-34.53,0,*55
1487225294.55,17257,12.06,74676.5,-3.17,-33.95,-34.41,0,*5D
1487225295.83,17258,12.06,74678.5,-3.13,-33.89,-34.35,0,*58
1487225297.08,17259,12.06,74678.3,-3.17,-33.95,-34.35,0,*50